Simultaneous Nadir Overpasses (SNOs) Predictions

Prediction of SNOs between GOES-16 and AQUA Satellite Orbit:

Table of predicted SNOs for the next 14.0 days since TLE Epoch: 12/22/2017
Index Date Time (GOES-16) GOES-16 Lat,Lon AQUA Lat,Lon Distance(km) Time Diff (sec)
1 12/24/2017 06:26:11 0.00, -75.16 -0.61, -72.39 315.65 80
2 12/24/2017 18:47:35 0.00, -75.20 -0.50, -77.58 270.47 80
3 12/26/2017 18:32:45 0.02, -75.21 0.14, -74.63 66.76 80
4 12/28/2017 18:20:35 0.01, -75.23 0.78, -71.67 404.77 80
5 12/29/2017 06:44:30 0.02, -75.20 0.39, -76.82 184.61 80
6 12/31/2017 06:32:20 0.02, -75.22 -0.26, -73.87 153.65 80
7 12/31/2017 18:53:44 -0.02, -75.26 -0.84, -79.05 431.91 80
8 01/02/2018 06:20:10 0.02, -75.24 -0.92, -70.92 491.99 80
9 01/02/2018 18:41:34 -0.02, -75.28 -0.19, -76.10 93.47 80
10 01/04/2018 18:26:44 -0.01, -75.31 0.47, -73.16 245.49 80
11 01/05/2018 06:50:39 0.01, -75.28 0.63, -78.31 344.17 80




NCC Satellite Simultaneous Nadir Overpasses (SNOs) Prediction Service
